Find WHDW 22-01

NORAD ID: 69572 Int'l Des: 2026-137 Owner: ZXW Country: CN operational
LEOCIRCULAR

当前视图

正在加载3D地球...

About WHDW 22-01

WHDW 22-01 (NORAD 69572) is a satellite launched Jun 17, 2026 by ZXW of CN. It operates in LEO, CIRCULAR orbit with a mass of 800.00 kg.

即将过境

Passes for default location (London). Set your location on the main map for personalized predictions.

高度历史

Loading altitude history...

两行轨道根数

1 69572U 26137A 26168.87670696 -.00000119 00000-0 21954-4 0 9997
2 69572 50.0042 252.6801 0012368 229.2629 130.7197 13.92196762 114
Epoch: Jun 17, 2026 • Age: 12 hours

当前状态

高度 927.1 km
速度 7.39 km/s
星下点 -4.03°S, 155.44°W
发射日期 Jun 17, 2026
运行时间 1 day
类型 other

技术详情

分类 Payload
质量 800.00 kg
干质量 800.00 kg
总质量 800.00 kg
长度 3.00 m
直径 1.00 m
跨度 10.00 m
形状 Box + 2 Pan
制造商 YINNT
平台类型 Xingwang Y
阶段状态 In Orbit
所有者/国家 ZXW/CN

Most Searched